Starlink 32075

operational
NORAD ID: 60345 Int'l Des: 2024-136 Owner: SPXS Country: US Constellation: starlink
LEOCIRCULAR

About Starlink 32075

Description loading...

Live Position

Loading 3D Globe...

Upcoming Passes

Altitude History

Altitude vs Time

uPlot chart will show altitude changes over time

Two-Line Element Set

1 60345U 24136S 25353.46203307 .00001025 00000-0 46762-4 0 9994
2 60345 53.1610 88.1510 0001434 93.6351 266.4814 15.30185987 77381
Epoch: Dec 19, 2025 • Age: 11 hours

Current Status

Altitude 493.6 km
Velocity 7.62 km/s
Sub-Earth Point -50.48°S, 82.06°W
Launch Date Aug 2, 2024
Age 1.3 years
Type internet

Technical Details

Classification Payload
Mass 730.00 kg
Dry Mass 700.00 kg
Total Mass 730.00 kg
Length 0.30 m
Diameter 4.10 m
Span 29.00 m
Shape Box + pan
Manufacturer SPXS
Bus Type Starlink V2M
Phase Status In Orbit
Owner/State SPXS/US

Large Constellations

Loading constellations...